Terminal Aerodrome Forecast
Issued by NWS Kansas City/Pleasant Hill, MO

Home | Current Version | Previous Version | Text Only | Print | Product List | Glossary On
Versions: 1 2 3 4 5 6 7 8 9 10 11 12 13 14 15
000
FTUS43 KEAX 250800 AAA
TAFMCI
TAF AMD
KMCI 250855Z 2509/2606 18008KT P6SM SCT100
      TEMPO 2509/2511 5SM -TSRA BR BKN100CB=

USA.gov is the U.S. government's official web portal to all federal, state and local government web resources and services.